Weather History for KDTN - January, 2013

Change the Weather History Date:

Sunday, January 13, 2013

  Actual Average (KSHV) Record (KSHV)
Temperature  
Mean Temperature 42 °F 46 °F  
Max Temperature 48 °F 57 °F 79 °F (2007)
Min Temperature 37 °F 36 °F 11 °F (1918)
Degree Days  
Heating Degree Days 22 19  
Month to date heating degree days 247  
Since 1 July heating degree days 1149  
Cooling Degree Days 0 0  
Month to date cooling degree days 0  
Year to date cooling degree days 0  
Moisture  
Dew Point 40 °F    
Average Humidity 90    
Maximum Humidity 100    
Minimum Humidity 71    
Precipitation  
Precipitation 1.03 in 0.12 in 1.05 in (1921)
Month to date precipitation 1.65  
Year to date precipitation 1.65  
Snow  
Snow 0.00 in - - ()
Month to date snowfall  
Since 1 July snowfall  
Snow Depth -    
Sea Level Pressure  
Sea Level Pressure 30.01 in    
Wind  
Wind Speed 10 mph (NNW)    
Max Wind Speed 20 mph    
Max Gust Speed 29 mph    
Visibility 8 miles    
Events Rain , Thunderstorm    
T = Trace of Precipitation, MM = Missing Value Source: NWS Daily Summary

Daily Weather History Graph

Daily Weather History Graph

Search for Another Location

Airport or City:

Trip Planner

Search our weather history database for the weather conditions in past years. The results will help you decide how hot, cold, wet, or windy it might be!

Date:

Astronomy

Jan. 13, 2013 Rise Set
Actual Time 7:17 AM CST 5:30 PM CST
Civil Twilight 6:50 AM CST 5:57 PM CST
Nautical Twilight 6:20 AM CST 6:27 PM CST
Astronomical Twilight 5:50 AM CST 6:57 PM CST
Moon 8:25 AM CST (1/13) 7:58 PM CST (1/13)
Length of Visible Light 11h 06m
Length of Day
10h 13m
Waxing Crescent, 5% of the Moon is Illuminated
Jan 13
Waxing Crescent
Jan 18
First Quarter
Jan 26
Full
Feb 3
Last Quarter
Feb 10
New

Hourly Weather History & Observations

Time (CST) Temp. Windchill Dew Point Humidity Pressure Visibility Wind Dir Wind Speed Gust Speed Precip Events Conditions
12:36 AM 48.2 °F - 46.4 °F 93% 29.79 in 2.5 mi NW 11.5 mph - 0.25 in Rain , Thunderstorm Heavy Rain
12:44 AM 48.2 °F - 46.4 °F 93% 29.82 in 1.8 mi WNW 9.2 mph - 0.39 in Rain , Thunderstorm Heavy Rain
12:51 AM 46.4 °F 41.1 °F 46.4 °F 100% 29.82 in 4.0 mi NW 11.5 mph 17.3 mph 0.42 in Rain Rain
12:53 AM 46.9 °F - 46.0 °F 97% 29.81 in 6.0 mi NW 12.7 mph 17.3 mph 0.42 in Rain Light Rain
1:53 AM 45.0 °F 39.3 °F 44.1 °F 97% 29.84 in 10.0 mi NW 11.5 mph - 0.01 in   Overcast
2:45 AM 44.6 °F 40.2 °F 42.8 °F 93% 29.87 in 10.0 mi NNW 8.1 mph - 0.00 in Rain , Thunderstorm Light Rain
2:53 AM 44.1 °F 39.5 °F 43.0 °F 96% 29.88 in 9.0 mi WNW 8.1 mph - 0.01 in Rain , Thunderstorm Light Rain
3:33 AM 42.8 °F 37.0 °F 42.8 °F 100% 29.87 in 8.0 mi NW 10.4 mph - 0.03 in Rain Light Rain
3:53 AM 43.0 °F 37.2 °F 41.0 °F 93% 29.87 in 9.0 mi NW 10.4 mph - 0.04 in Rain Light Rain
4:01 AM 42.8 °F 37.5 °F 41.0 °F 93% 29.87 in 10.0 mi NNW 9.2 mph 17.3 mph 0.00 in   Overcast
4:25 AM 42.8 °F 34.3 °F 41.0 °F 93% 29.93 in 8.0 mi WNW 19.6 mph 26.5 mph 0.01 in Rain , Thunderstorm Thunderstorms and Rain
4:35 AM 42.8 °F 37.5 °F 41.0 °F 93% 29.91 in 2.5 mi NW 9.2 mph 28.8 mph 0.09 in Rain , Thunderstorm Heavy Thunderstorms and Rain
4:45 AM 41.0 °F 33.5 °F 41.0 °F 100% 29.86 in 3.0 mi NNW 13.8 mph 21.9 mph 0.15 in Rain , Thunderstorm Heavy Rain
4:53 AM 41.0 °F 35.8 °F 39.9 °F 96% 29.90 in 7.0 mi NW 8.1 mph 21.9 mph 0.15 in Rain , Thunderstorm Light Rain
5:13 AM 41.0 °F 34.7 °F 39.2 °F 93% 29.93 in 10.0 mi NW 10.4 mph - 0.00 in   Overcast
5:53 AM 41.0 °F 34.7 °F 39.9 °F 96% 29.91 in 10.0 mi NW 10.4 mph 19.6 mph 0.02 in Rain Light Rain
6:11 AM 41.0 °F 35.2 °F 39.2 °F 93% 29.94 in 8.0 mi NW 9.2 mph 17.3 mph 0.02 in Rain , Thunderstorm Rain
6:26 AM 41.0 °F 35.2 °F 39.2 °F 93% 29.94 in 4.0 mi NNW 9.2 mph - 0.07 in Rain Rain
6:53 AM 41.0 °F 34.3 °F 39.9 °F 96% 29.96 in 5.0 mi NW 11.5 mph 18.4 mph 0.12 in Rain Rain
7:02 AM 41.0 °F 34.7 °F 39.2 °F 93% 29.96 in 2.5 mi NNW 10.4 mph - 0.07 in Rain , Thunderstorm Heavy Rain
7:09 AM 41.0 °F 34.7 °F 39.2 °F 93% 29.98 in 8.0 mi NW 10.4 mph - 0.07 in Rain , Thunderstorm Light Rain
7:53 AM 41.0 °F 35.2 °F 39.9 °F 96% 29.96 in 5.0 mi NNE 9.2 mph 17.3 mph 0.22 in Rain , Thunderstorm Rain
8:02 AM 42.8 °F 39.3 °F 41.0 °F 93% 30.02 in 4.0 mi NW 5.8 mph - 0.02 in Rain Rain
8:53 AM 41.0 °F 34.3 °F 39.9 °F 96% 30.04 in 10.0 mi NW 11.5 mph - 0.04 in   Overcast
9:53 AM 42.1 °F 36.6 °F 39.9 °F 92% 30.07 in 10.0 mi NNW 9.2 mph - 0.00 in   Overcast
10:53 AM 42.1 °F 36.6 °F 39.9 °F 92% 30.09 in 10.0 mi NW 9.2 mph - 0.00 in   Overcast
11:53 AM 39.9 °F 32.5 °F 37.9 °F 93% 30.08 in 9.0 mi NNW 12.7 mph 20.7 mph N/A   Overcast
12:53 PM 39.9 °F 33.4 °F 37.0 °F 89% 30.10 in 10.0 mi NW 10.4 mph - N/A   Overcast
1:16 PM 41.0 °F 36.4 °F 37.4 °F 87% 30.10 in 10.0 mi NNW 6.9 mph 16.1 mph N/A   Overcast
1:53 PM 42.1 °F 35.7 °F 37.0 °F 82% 30.09 in 10.0 mi NNW 11.5 mph 19.6 mph N/A   Overcast
2:23 PM 42.8 °F 38.0 °F 37.4 °F 81% 30.10 in 10.0 mi NNW 8.1 mph - N/A   Overcast
2:53 PM 44.1 °F 39.0 °F 37.9 °F 79% 30.11 in 10.0 mi NNW 9.2 mph - N/A   Overcast
3:53 PM 45.0 °F 40.6 °F 37.0 °F 74% 30.12 in 10.0 mi North 8.1 mph - N/A   Overcast
4:14 PM 46.4 °F 41.9 °F 37.4 °F 71% 30.13 in 10.0 mi NNW 9.2 mph - N/A   Scattered Clouds
4:53 PM 46.0 °F 41.9 °F 37.0 °F 71% 30.14 in 10.0 mi North 8.1 mph - N/A   Partly Cloudy
5:53 PM 44.1 °F 40.8 °F 37.0 °F 76% 30.16 in 10.0 mi NNE 5.8 mph - N/A   Clear
6:53 PM 43.0 °F 40.3 °F 36.0 °F 76% 30.17 in 10.0 mi NNE 4.6 mph - N/A   Mostly Cloudy
7:53 PM 42.1 °F - 37.9 °F 85% 30.19 in 10.0 mi Calm Calm - N/A   Overcast
8:53 PM 42.1 °F 38.4 °F 37.9 °F 85% 30.19 in 10.0 mi Variable 5.8 mph - N/A   Overcast
9:53 PM 39.9 °F 35.1 °F 36.0 °F 86% 30.22 in 10.0 mi NE 6.9 mph - N/A   Clear
10:32 PM 39.2 °F 35.0 °F 37.4 °F 93% 30.21 in 10.0 mi NNE 5.8 mph - N/A   Mostly Cloudy
10:53 PM 39.0 °F 34.8 °F 36.0 °F 89% 30.22 in 10.0 mi NNE 5.8 mph - N/A   Scattered Clouds
11:33 PM 37.4 °F 33.8 °F 35.6 °F 93% 30.23 in 10.0 mi NNE 4.6 mph - N/A   Mostly Cloudy
11:53 PM 37.9 °F 33.5 °F 36.0 °F 93% 30.23 in 10.0 mi North 5.8 mph - N/A   Mostly Cloudy